Dallas, TX

2:38 AM CDT on July 26, 2016 (GMT -0500)
Redbird

Weather History for KRBD - August, 2014

Change the Weather History Date:

Tuesday, August 19, 2014

  Actual Average Record
Temperature  
Mean Temperature 84 °F -  
Max Temperature 95 °F 92 °F 108 °F (2011)
Min Temperature 75 °F 72 °F 66 °F (2012)
Cooling Degree Days 19    
Growing Degree Days 34 (Base 50)    
Moisture  
Dew Point 67 °F    
Average Humidity 56    
Maximum Humidity 76    
Minimum Humidity 35    
Precipitation  
Precipitation 0.00 in - - ()
Sea Level Pressure  
Sea Level Pressure 29.87 in    
Wind  
Wind Speed 6 mph (SSE)    
Max Wind Speed 14 mph    
Max Gust Speed 22 mph    
Visibility 10 miles    
Events      
Averages and records for this station are not official NWS values.
T = Trace of Precipitation, MM = Missing Value Source: NWS Daily Summary

Daily Weather History Graph

Daily Weather History Graph

Search for Another Location

Airport or City:

Trip Planner

Search our weather history database for the weather conditions in past years. The results will help you decide how hot, cold, wet, or windy it might be!

Date:

Astronomy

Aug. 19, 2014 Rise Set
Actual Time 6:53 AM CDT 8:07 PM CDT
Civil Twilight 6:27 AM CDT 8:33 PM CDT
Nautical Twilight 5:57 AM CDT 9:04 PM CDT
Astronomical Twilight 5:25 AM CDT 9:35 PM CDT
Moon 1:52 AM CDT (8/19) 3:59 PM CDT (8/19)
Length of Visible Light 14h 05m
Length of Day
13h 14m
Waning Crescent, 29% of the Moon is Illuminated
Aug 19
Waning Crescent
Aug 25
New
Sep 2
First Quarter
Sep 8
Full
Sep 15
Last Quarter

Hourly Weather History & Observations

Time (CDT) Temp. Heat Index Dew Point Humidity Pressure Visibility Wind Dir Wind Speed Gust Speed Precip Events Conditions
12:53 AM 82.0 °F 84.9 °F 68.0 °F 62% 29.86 in 10.0 mi SE 5.8 mph - N/A   Clear
1:53 AM 82.0 °F 83.8 °F 64.9 °F 56% 29.87 in 10.0 mi WSW 4.6 mph - N/A   Clear
2:53 AM 81.0 °F 83.8 °F 68.0 °F 65% 29.87 in 10.0 mi Calm Calm - N/A   Clear
3:53 AM 80.1 °F 82.9 °F 69.1 °F 69% 29.86 in 10.0 mi SSW 3.5 mph - N/A   Partly Cloudy
4:53 AM 79.0 °F - 69.1 °F 72% 29.84 in 10.0 mi Calm Calm - N/A   Clear
5:53 AM 75.9 °F - 68.0 °F 76% 29.85 in 10.0 mi Calm Calm - N/A   Clear
6:53 AM 77.0 °F - 69.1 °F 76% 29.86 in 10.0 mi ESE 4.6 mph - N/A   Clear
7:53 AM 78.1 °F - 70.0 °F 76% 29.89 in 10.0 mi SE 4.6 mph - N/A   Clear
8:53 AM 82.9 °F 87.0 °F 70.0 °F 65% 29.90 in 10.0 mi SE 6.9 mph - N/A   Clear
9:53 AM 84.9 °F 90.7 °F 72.0 °F 65% 29.91 in 10.0 mi Variable 5.8 mph - N/A   Partly Cloudy
10:53 AM 88.0 °F 94.7 °F 72.0 °F 59% 29.93 in 10.0 mi Variable 5.8 mph - N/A   Clear
11:53 AM 90.0 °F 93.6 °F 68.0 °F 48% 29.92 in 10.0 mi South 8.1 mph - N/A   Partly Cloudy
12:53 PM 91.9 °F 93.3 °F 64.0 °F 39% 29.91 in 10.0 mi South 8.1 mph - N/A   Clear
1:53 PM 93.9 °F 94.8 °F 62.1 °F 35% 29.88 in 10.0 mi SW 8.1 mph - N/A   Clear
2:53 PM 93.0 °F 95.9 °F 66.0 °F 41% 29.86 in 10.0 mi SSE 9.2 mph - N/A   Partly Cloudy
3:53 PM 93.0 °F 96.4 °F 66.9 °F 42% 29.84 in 10.0 mi Variable 6.9 mph - N/A   Clear
4:53 PM 93.0 °F 96.4 °F 66.9 °F 42% 29.83 in 10.0 mi North - - N/A   Clear
5:53 PM 93.0 °F 95.0 °F 64.9 °F 39% 29.82 in 10.0 mi SSE 6.9 mph - N/A   Clear
6:53 PM 93.0 °F 95.9 °F 66.0 °F 41% 29.81 in 10.0 mi South 9.2 mph - N/A   Clear
7:53 PM 91.9 °F 93.3 °F 64.0 °F 39% 29.82 in 10.0 mi SSE 10.4 mph - N/A   Clear
8:53 PM 90.0 °F 90.6 °F 63.0 °F 40% 29.83 in 10.0 mi SSE 5.8 mph - N/A   Scattered Clouds
9:53 PM 84.0 °F 86.5 °F 66.9 °F 56% 29.86 in 10.0 mi SSE 13.8 mph 21.9 mph N/A   Partly Cloudy
10:53 PM 82.0 °F 84.9 °F 68.0 °F 62% 29.87 in 10.0 mi SSE 11.5 mph 20.7 mph N/A   Clear
11:53 PM 81.0 °F 84.1 °F 69.1 °F 67% 29.88 in 10.0 mi SSE 13.8 mph 19.6 mph N/A   Clear